{"data":{"norad_id":59957,"epoch":"2026-05-24T17:35:14.998272Z","epoch_age_seconds":108424,"freshness":"FRESH","line1":"1 59957U 24107N   26144.73281248  .00000340  00000+0  76744-5 0  9990","line2":"2 59957  53.1585 236.0834 0001523  90.7197 269.3995 15.69706963114106","mean_motion":15.69706963,"eccentricity":0.0001523,"inclination_deg":53.1585,"raan_deg":236.0834,"arg_perigee_deg":90.7197,"mean_anomaly_deg":269.3995,"bstar":7.6744e-6,"rev_number":11410,"period_min":91.736867704778,"perigee_km":358.7092631925,"apogee_km":360.76161913808,"semimajor_km":6737.8724411653,"source":"CELESTRAK","updated_at":"2026-05-25T13:38:19.129014Z"}}